O3B FM15 (43231 NORAD) Tracking and Keplerian Element Data

This shows tracking and keplerian element data for the satellite.

Feedback or suggestion? Click here.




ElementValue
Catalog43231
NameO3B FM15
Epoch Orbit6435
Epoch Day261.64089283
Epoch Year2021
RAAN4.1781
Inclination0.0536
Eccentricity0.0002589
Argument of Perigee172.3885
Mean Anonmoly183.4351
Mean Motion5.00115578
Decay Rate-3.2E-07
L11 43231U 18024A 21261.64089283 -.00000032 00000-0 00000-0 0 9996
L22 43231 0.0536 4.1781 0002589 172.3885 183.4351 5.00115578 64353

Live tracking and technical data element details for O3B FM15 (NORAD 43231). O3B FM15 can be tracked NOW for your location showing map with azimuth and elevation plus other details from your city location.

Track the satellite on the map from your city or location and see movement details for azimuth, elevation, latitude, longitude, range, height, and movement on the map or in text.







IsCatalogInMostPopularTable: catalog: 43231, numindb: 564
Update: records affected: 1



GetName: 43231 O3B FM15

Hit Count: updated at: Sun, 26 Sep 2021 00:31:16 GMT